Location: *
(55.5817°S, 142.4781°W)
Time: 06:29:20
(UTC+00:00)

Cosmos 1025 Rocket - Pass Details

Date: 29 April 2025
Orbit: 586 x 612 km, 82.5° (Epoch: 23 May)

Event Time Altitude Azimuth Distance (km) Brightness Sun altitude
Rises 15:40:50 0° 192° (SSW) 2,907 6.3 -10.2°
Reaches altitude 10° 15:43:05 10° 190° (S) 1,999 5.5 -9.9°
Maximum altitude 15:47:31 76° 103° (ESE) 647 3.3 -9.3°
Drops below altitude 10° 15:51:56 10° 17° (NNE) 1,986 6.1 -8.6°
Sets 15:54:09 0° 15° (NNE) 2,885 6.9 -8.3°
